Location: Kouchibouguac National Park
(46.8081°N, 64.9088°W)
Time: 23:05:57
(UTC-03:00)

Amateur Radio Satellites - All Passes

Search period start: 23 March 2017 22:35
Search period end: 24 March 2017 22:35
Location: Kouchibouguac National Park, 46.8081°N, 64.9088°W

Satellite Date Start Highest point End Downlink Frequencies (MHz)
Time Altitude Azimuth
TIGRISAT 23 Mar 22:40:37 22:44:05 22° 92° (E) 22:47:28 435.000
UNISAT 6 23 Mar 22:49:29 22:53:22 28° 94° (E) 22:57:08 437.425
FO-29 23 Mar 22:52:47 22:57:32 22° 88° (E) 23:01:52 435.910
PRISM 23 Mar 23:00:55 23:05:04 71° 103° (ESE) 23:09:13 437.425
BEESAT 3 23 Mar 23:04:25 23:06:01 12° 110° (ESE) 23:07:38 437.485
SO-50 23 Mar 23:04:49 23:08:01 18° 32° (NNE) 23:11:11 436.795
LO-87 23 Mar 23:04:50 23:08:16 46° 73° (ENE) 23:11:47 145.935 - 145.965
VELOX 1 23 Mar 23:06:29 23:08:01 12° 57° (ENE) 23:09:33 145.980
ESTCUBE 1 23 Mar 23:13:12 23:17:17 36° 68° (ENE) 23:21:22 437.505/2401.250
ISS 23 Mar 23:20:09 23:23:22 58° 148° (SSE) 23:26:37 437.550
Tancredo 1 23 Mar 23:34:41 23:37:52 82° 152° (SSE) 23:41:05 437.200
AO-85 23 Mar 23:38:22 23:42:27 40° 314° (NW) 23:46:19 145.980
AIST 2D 23 Mar 23:54:38 23:57:03 17° 92° (E) 23:59:26 435.315
NANOSAT C BR1 23 Mar 23:58:43 00:00:20 12° 88° (E) 00:01:57 145.865
EO-79 24 Mar 00:00:42 00:02:55 14° 89° (E) 00:05:06 145.935-145.965
SPROUT 24 Mar 00:12:11 00:16:11 39° 69° (ENE) 00:20:13 437.525
TIGRISAT 24 Mar 00:16:44 00:20:58 42° 291° (WNW) 00:25:05 435.000
50 SAT 24 Mar 00:18:02 00:21:02 29° 69° (ENE) 00:24:04 437.505
UNISAT 6 24 Mar 00:26:05 00:30:06 32° 293° (WNW) 00:33:59 437.425
POLYITAN 1 24 Mar 00:26:47 00:30:21 25° 94° (E) 00:33:51 437.675
DX 1 24 Mar 00:27:41 00:31:28 30° 66° (ENE) 00:35:17 434.975-435.025
RS-15 24 Mar 00:29:41 00:40:31 40° 253° (WSW) 00:50:57 29.354- 29.394
QB50P2 24 Mar 00:31:05 00:34:52 30° 96° (E) 00:38:36 145.880/145.840
FO-29 24 Mar 00:36:59 00:43:16 62° 290° (WNW) 00:48:47 435.910
PRISM 24 Mar 00:37:44 00:39:49 14° 301° (WNW) 00:41:55 437.425
BEESAT 3 24 Mar 00:39:05 00:43:01 76° 308° (NW) 00:47:02 437.485
VELOX 1 24 Mar 00:39:21 00:43:45 86° 75° (ENE) 00:48:13 145.980
LO-87 24 Mar 00:40:12 00:42:01 13° 270° (W) 00:43:51 145.935 - 145.965
SO-50 24 Mar 00:44:37 00:49:09 85° 53° (NE) 00:53:39 436.795
BEESAT 2 24 Mar 00:47:33 00:51:26 56° 122° (ESE) 00:55:23 435.950
DUCHIFAT 1 24 Mar 00:48:10 00:52:04 35° 97° (E) 00:55:55 145.980
ESTCUBE 1 24 Mar 00:50:23 00:54:09 26° 266° (W) 00:57:55 437.505/2401.250
ISS 24 Mar 00:56:49 00:59:57 41° 348° (NNW) 01:03:07 437.550
Tancredo 1 24 Mar 01:11:16 01:14:15 35° 352° (N) 01:17:15 437.200
UKube-1 24 Mar 01:13:41 01:17:56 62° 72° (ENE) 01:22:13 .
BUGSAT 1 24 Mar 01:17:29 01:21:00 25° 94° (E) 01:24:29 437.445
AO-85 24 Mar 01:23:27 01:23:55 10° 335° (NNW) 01:24:22 145.980
Oscar 19 24 Mar 01:26:22 01:28:15 12° 86° (E) 01:30:09 437.125/150
AIST 2D 24 Mar 01:27:13 01:30:23 32° 290° (WNW) 01:33:31 435.315
NANOSAT C BR1 24 Mar 01:32:19 01:36:34 72° 285° (WNW) 01:40:45 145.865
EO-79 24 Mar 01:34:53 01:39:06 63° 287° (WNW) 01:43:17 145.935-145.965
BEESAT 24 Mar 01:44:55 01:47:27 14° 57° (ENE) 01:49:59 436.000
SPROUT 24 Mar 01:48:50 01:52:14 22° 267° (W) 01:55:39 437.525
50 SAT 24 Mar 01:51:35 01:54:08 19° 266° (W) 01:56:43 437.505
O/OREOS (USA 219) 24 Mar 01:55:05 01:55:56 10° 40° (NE) 01:56:45 437.305
ITUPSAT 1 24 Mar 01:58:10 02:01:24 18° 60° (ENE) 02:04:39 437.325
POLYITAN 1 24 Mar 02:02:21 02:06:11 33° 292° (WNW) 02:09:58 437.675
DX 1 24 Mar 02:03:47 02:07:37 30° 264° (W) 02:11:28 434.975-435.025
QB50P2 24 Mar 02:06:56 02:10:36 28° 294° (WNW) 02:14:14 145.880/145.840
BEESAT 3 24 Mar 02:19:00 02:21:19 15° 328° (NNW) 02:23:39 437.485
VELOX 1 24 Mar 02:19:55 02:20:50 11° 273° (W) 02:21:44 145.980
DUCHIFAT 1 24 Mar 02:24:09 02:27:35 25° 295° (WNW) 02:31:00 145.980
FO-29 24 Mar 02:24:16 02:26:54 13° 313° (NW) 02:29:24 435.910
BEESAT 2 24 Mar 02:26:21 02:29:31 22° 322° (NW) 02:32:43 435.950
SO-50 24 Mar 02:26:51 02:28:57 13° 251° (WSW) 02:31:03 436.795
MOZHAYETS 4 24 Mar 02:29:24 02:31:55 15° 59° (ENE) 02:34:26
ISS 24 Mar 02:33:48 02:36:54 36° 8° (N) 02:39:59 437.550
Tancredo 1 24 Mar 02:47:49 02:50:51 39° 11° (NNE) 02:53:55 437.200
UKube-1 24 Mar 02:52:02 02:54:23 14° 270° (W) 02:56:46 .
BUGSAT 1 24 Mar 02:52:38 02:56:24 33° 292° (WNW) 03:00:07 437.445
Gurwin Techsat 1B 24 Mar 02:52:49 02:57:53 42° 98° (E) 03:02:53 435.225
Oscar 19 24 Mar 03:03:09 03:08:21 85° 106° (ESE) 03:13:32 437.125/150
AO-7 24 Mar 03:15:03 03:19:16 15° 85° (E) 03:23:28 .
BEESAT 24 Mar 03:19:46 03:24:34 85° 255° (WSW) 03:29:23 436.000
O/OREOS (USA 219) 24 Mar 03:31:50 03:36:24 57° 61° (ENE) 03:40:56 437.305
ITUPSAT 1 24 Mar 03:33:59 03:38:45 65° 258° (WSW) 03:43:32 437.325
MOZHAYETS 4 24 Mar 04:03:53 04:08:30 77° 258° (WSW) 04:13:07
KKS-1 24 Mar 04:07:51 04:11:46 31° 66° (ENE) 04:15:42 437.445
ISS 24 Mar 04:10:18 04:13:37 85° 207° (SSW) 04:16:56 437.550
Tancredo 1 24 Mar 04:23:59 04:27:09 61° 210° (SSW) 04:30:20 437.200
Gurwin Techsat 1B 24 Mar 04:33:03 04:37:41 31° 296° (WNW) 04:42:17 435.225
ITAMSAT 1 24 Mar 04:43:24 04:48:38 71° 103° (ESE) 04:53:48 435.822/435.867
Oscar 19 24 Mar 04:43:56 04:46:59 16° 303° (WNW) 04:50:02 437.125/150
AO-85 24 Mar 04:47:27 04:48:48 11° 27° (NNE) 04:50:09 145.980
CUBESAT XI-V 24 Mar 04:48:03 04:52:31 53° 71° (ENE) 04:57:00 437.345
STARS 24 Mar 04:52:15 04:56:22 39° 68° (ENE) 05:00:30 437.465
BEESAT 24 Mar 05:02:00 05:03:04 11° 273° (W) 05:04:08 436.000
AO-7 24 Mar 05:05:15 05:13:34 70° 106° (ESE) 05:21:49 .
O/OREOS (USA 219) 24 Mar 05:12:16 05:15:22 18° 260° (W) 05:18:27 437.305
KKS-1 24 Mar 05:44:19 05:48:16 31° 264° (W) 05:52:16 437.445
ISS 24 Mar 05:47:39 05:49:40 15° 225° (SW) 05:51:41 437.550
Tancredo 1 24 Mar 06:02:34 06:02:44 10° 228° (SW) 06:02:54 437.200
STRAND 1 24 Mar 06:08:18 06:10:57 14° 55° (NE) 06:13:35 437.568
M-CUBED/EXP-1 PRIME 24 Mar 06:12:55 06:16:32 68° 69° (ENE) 06:20:30 437.505
CUTE-I 24 Mar 06:14:10 06:15:58 12° 86° (E) 06:17:45 437.470
ITAMSAT 1 24 Mar 06:23:58 06:27:33 19° 302° (WNW) 06:31:08 435.822/435.867
AO-85 24 Mar 06:26:15 06:30:06 52° 49° (NE) 06:34:00 145.980
CUBESAT XI-V 24 Mar 06:27:03 06:30:13 18° 269° (W) 06:33:24 437.345
STARS 24 Mar 06:29:15 06:32:49 24° 266° (W) 06:36:26 437.465
LilacSat-2 24 Mar 06:30:03 06:32:04 14° 90° (E) 06:34:05 437.200
XW-2F 24 Mar 06:33:58 06:36:00 14° 90° (E) 06:38:03 145.980 - 146.000
XW-2D 24 Mar 06:57:06 07:00:20 27° 95° (E) 07:03:32 145.860 - 145.880
AO-7 24 Mar 06:58:41 07:05:48 33° 307° (NW) 07:12:54 .
DOVE 4 24 Mar 07:02:18 07:07:28 49° 98° (E) 07:12:33 437.250
XW-2B 24 Mar 07:02:52 07:06:13 30° 96° (E) 07:09:33 145.730 - 145.750
NUDT-PHONESAT 24 Mar 07:07:09 07:10:21 27° 96° (E) 07:13:31 437.300
KAITUO 1B 24 Mar 07:10:38 07:13:57 30° 96° (E) 07:17:14 145.475/437.950
XW-2C 24 Mar 07:12:46 07:16:20 39° 98° (E) 07:19:52 145.795 - 145.815
BEESAT 3 24 Mar 07:16:11 07:19:30 24° 39° (NE) 07:22:48 437.485
BEESAT 2 24 Mar 07:25:38 07:28:15 16° 33° (NNE) 07:30:52 435.950
STRAND 1 24 Mar 07:44:11 07:49:21 84° 74° (ENE) 07:54:33 437.568
M-CUBED/EXP-1 PRIME 24 Mar 07:50:40 07:51:35 11° 268° (W) 07:52:31 437.505
CUTE-I 24 Mar 07:51:28 07:56:52 81° 104° (ESE) 08:02:13 437.470
YUBILEINY 24 Mar 07:58:30 08:06:27 41° 86° (E) 08:14:22 435.215
SEEDS 24 Mar 08:02:38 08:04:40 13° 89° (E) 08:06:42 437.485
LilacSat-2 24 Mar 08:02:59 08:06:39 48° 287° (WNW) 08:10:17 437.200
CUTE 1.7 + AOD 2 24 Mar 08:03:08 08:06:17 20° 92° (E) 08:09:25 437.475
XW-2A 24 Mar 08:04:31 08:07:13 22° 95° (E) 08:09:53 145.665 - 145.685
XW-2F 24 Mar 08:06:50 08:10:27 47° 287° (WNW) 08:14:01 145.980 - 146.000
AO-85 24 Mar 08:07:29 08:10:08 17° 247° (WSW) 08:12:49 145.980
HO-68 24 Mar 08:11:18 08:17:40 33° 95° (E) 08:24:00 435.675
NO-84 24 Mar 08:24:48 08:27:12 25° 135° (SE) 08:29:38 435.350 FM
UWE-3 24 Mar 08:26:44 08:27:18 10° 86° (E) 08:27:51 435.000/436.395/437.385
XW-2D 24 Mar 08:31:21 08:34:27 25° 293° (WNW) 08:37:32 145.860 - 145.880
XW-2B 24 Mar 08:37:20 08:40:18 22° 293° (WNW) 08:43:14 145.730 - 145.750
DOVE 4 24 Mar 08:40:27 08:44:52 27° 296° (WNW) 08:49:15 437.250
NUDT-PHONESAT 24 Mar 08:41:12 08:44:12 23° 293° (WNW) 08:47:09 437.300
KAITUO 1B 24 Mar 08:44:57 08:47:50 22° 294° (WNW) 08:50:42 145.475/437.950
XW-2C 24 Mar 08:47:42 08:50:16 18° 296° (WNW) 08:52:48 145.795 - 145.815
CUBEBUG 2 24 Mar 08:51:39 08:55:38 31° 95° (E) 08:59:29 437.445
BEESAT 3 24 Mar 08:53:26 08:57:21 50° 239° (WSW) 09:01:13 437.485
AO-7 24 Mar 08:55:44 08:56:01 10° 331° (NNW) 08:56:18 .
BEESAT 2 24 Mar 09:02:33 09:06:39 86° 54° (NE) 09:10:41 435.950
FO-29 24 Mar 09:07:32 09:12:55 21° 54° (NE) 09:18:04 435.910
Oscar 11 24 Mar 09:10:07 09:12:26 14° 89° (E) 09:14:44 .
ZACube-1 24 Mar 09:11:50 09:14:50 18° 91° (E) 09:17:46 437.345
STRAND 1 24 Mar 09:26:36 09:29:11 14° 272° (W) 09:31:47 437.568
AAUSAT CUBESAT 2 24 Mar 09:29:24 09:33:28 54° 100° (E) 09:37:32 437.432
CUTE-I 24 Mar 09:32:47 09:36:16 18° 303° (WNW) 09:39:43 437.470
SEEDS 24 Mar 09:36:39 09:40:47 63° 287° (WNW) 09:44:55 437.485
XW-2A 24 Mar 09:37:08 09:39:57 24° 292° (WNW) 09:42:45 145.665 - 145.685
CUTE 1.7 + AOD 2 24 Mar 09:38:20 09:42:18 41° 290° (WNW) 09:46:16 437.475
AO-73 24 Mar 09:41:18 09:45:10 33° 96° (E) 09:48:57 145.935
TIGRISAT 24 Mar 09:41:29 09:45:31 29° 66° (ENE) 09:49:32 435.000
UNISAT 6 24 Mar 09:50:27 09:54:46 37° 68° (ENE) 09:59:03 437.425
PRISM 24 Mar 09:52:38 09:56:40 73° 74° (ENE) 10:00:45 437.425
YUBILEINY 24 Mar 09:54:38 10:03:04 51° 287° (WNW) 10:11:32 435.215
HO-68 24 Mar 09:58:45 10:05:42 56° 294° (WNW) 10:12:38 435.675
UWE-3 24 Mar 10:00:01 10:04:26 85° 281° (W) 10:08:40 435.000/436.395/437.385
NO-84 24 Mar 10:01:55 10:04:37 38° 334° (NNW) 10:07:25 435.350 FM
CUBEBUG 2 24 Mar 10:28:17 10:32:12 30° 294° (WNW) 10:35:59 437.445
AIST 2D 24 Mar 10:33:12 10:34:27 12° 62° (ENE) 10:35:43 435.315
BEESAT 2 24 Mar 10:42:37 10:43:46 11° 251° (WSW) 10:44:56 435.950
Oscar 11 24 Mar 10:44:43 10:48:59 62° 286° (WNW) 10:53:13 .
ZACube-1 24 Mar 10:47:17 10:51:24 45° 289° (WNW) 10:55:24 437.345
FO-29 24 Mar 10:49:09 10:57:01 81° 73° (ENE) 11:04:25 435.910
NANOSAT C BR1 24 Mar 10:53:22 10:55:43 15° 60° (ENE) 10:58:04 145.865
EO-79 24 Mar 10:55:46 10:58:28 17° 61° (ENE) 11:01:11 145.935-145.965
PCSat 24 Mar 10:58:20 11:03:35 53° 117° (ESE) 11:08:52 145.827
AAUSAT CUBESAT 2 24 Mar 11:05:55 11:08:33 17° 297° (WNW) 11:11:10 437.432
DELFI C3 24 Mar 11:13:12 11:17:13 90° 135° (SE) 11:21:12 145.870
TIGRISAT 24 Mar 11:17:46 11:22:05 36° 263° (W) 11:26:24 435.000
AO-73 24 Mar 11:17:46 11:21:17 26° 294° (WNW) 11:24:45 145.935
POLYITAN 1 24 Mar 11:21:52 11:25:33 29° 67° (ENE) 11:29:16 437.675
QB50P2 24 Mar 11:26:09 11:30:01 33° 68° (ENE) 11:33:52 145.880/145.840
UNISAT 6 24 Mar 11:27:31 11:31:32 28° 266° (W) 11:35:33 437.425
PRISM 24 Mar 11:31:19 11:32:28 11° 272° (W) 11:33:37 437.425
UWE-3 24 Mar 11:38:58 11:40:06 11° 303° (WNW) 11:41:14 435.000/436.395/437.385
NO-84 24 Mar 11:40:43 11:42:48 17° 356° (N) 11:44:57 435.350 FM
DUCHIFAT 1 24 Mar 11:42:23 11:46:19 38° 69° (ENE) 11:50:16 145.980
HO-68 24 Mar 11:48:35 11:51:56 14° 316° (NW) 11:55:17 435.675
YUBILEINY 24 Mar 11:59:25 12:02:30 12° 313° (NW) 12:05:36 435.215
LO-87 24 Mar 12:02:19 12:05:46 39° 98° (E) 12:09:12 145.935 - 145.965
AIST 2D 24 Mar 12:03:42 12:07:13 60° 259° (WSW) 12:10:45 435.315
BUGSAT 1 24 Mar 12:09:40 12:13:14 27° 66° (ENE) 12:16:50 437.445
NANOSAT C BR1 24 Mar 12:26:39 12:30:53 69° 257° (WSW) 12:35:11 145.865
VELOX 1 24 Mar 12:27:59 12:30:11 13° 89° (E) 12:32:24 145.980
EO-79 24 Mar 12:29:35 12:33:49 59° 260° (W) 12:38:03 145.935-145.965
FO-29 24 Mar 12:36:34 12:42:38 24° 271° (W) 12:48:30 435.910
ESTCUBE 1 24 Mar 12:38:50 12:43:14 52° 100° (E) 12:47:38 437.505/2401.250
Gurwin Techsat 1B 24 Mar 12:39:55 12:42:51 15° 55° (NE) 12:45:47 435.225
PCSat 24 Mar 12:42:27 12:47:15 31° 317° (NW) 12:52:05 145.827
RS-15 24 Mar 12:44:19 12:54:23 33° 104° (ESE) 13:04:40 29.354- 29.394
Oscar 19 24 Mar 12:44:59 12:49:05 25° 62° (ENE) 12:53:13 437.125/150
DELFI C3 24 Mar 12:50:59 12:51:21 10° 301° (WNW) 12:51:43 145.870
POLYITAN 1 24 Mar 12:57:28 13:01:16 31° 264° (W) 13:05:07 437.675
QB50P2 24 Mar 13:02:14 13:05:50 26° 265° (W) 13:09:27 145.880/145.840
50 SAT 24 Mar 13:12:24 13:15:08 21° 95° (E) 13:17:50 437.505
NO-84 24 Mar 13:18:33 13:21:07 24° 17° (NNE) 13:23:50 435.350 FM
DUCHIFAT 1 24 Mar 13:18:44 13:22:06 23° 267° (W) 13:25:30 145.980
SPROUT 24 Mar 13:30:26 13:34:38 49° 99° (E) 13:38:47 437.525
LO-87 24 Mar 13:36:30 13:38:57 17° 295° (WNW) 13:41:24 145.935 - 145.965
BUGSAT 1 24 Mar 13:44:42 13:48:30 32° 264° (W) 13:52:21 437.445
DX 1 24 Mar 13:48:23 13:52:28 36° 98° (E) 13:56:31 434.975-435.025
VELOX 1 24 Mar 14:02:40 14:07:08 71° 287° (WNW) 14:11:34 145.980
AO-7 24 Mar 14:16:22 14:23:26 32° 52° (NE) 14:30:27 .
ESTCUBE 1 24 Mar 14:16:27 14:19:42 20° 298° (WNW) 14:22:57 437.505/2401.250
Gurwin Techsat 1B 24 Mar 14:16:42 14:22:02 86° 75° (ENE) 14:27:24 435.225
Oscar 19 24 Mar 14:23:10 14:28:08 50° 260° (W) 14:33:08 437.125/150
ITAMSAT 1 24 Mar 14:26:25 14:30:27 23° 60° (ENE) 14:34:29 435.822/435.867
PCSat 24 Mar 14:31:00 14:32:29 11° 341° (NNW) 14:33:57 145.827
UKube-1 24 Mar 14:33:31 14:37:53 76° 104° (ESE) 14:42:13 .
50 SAT 24 Mar 14:45:10 14:48:11 27° 291° (WNW) 14:51:12 437.505
RS-15 24 Mar 14:53:30 15:05:37 83° 308° (NW) 15:18:08 29.354- 29.394
NO-84 24 Mar 14:55:46 14:58:56 81° 219° (SW) 15:02:24 435.350 FM
SO-50 24 Mar 15:03:49 15:06:01 13° 109° (ESE) 15:08:11 436.795
SPROUT 24 Mar 15:07:10 15:10:12 19° 297° (WNW) 15:13:13 437.525
BEESAT 24 Mar 15:17:45 15:21:11 19° 92° (E) 15:24:35 436.000
DX 1 24 Mar 15:24:52 15:28:30 26° 295° (WNW) 15:32:07 434.975-435.025
ITUPSAT 1 24 Mar 15:31:54 15:35:52 26° 94° (E) 15:39:48 437.325
MOZHAYETS 4 24 Mar 15:56:39 16:00:01 20° 92° (E) 16:03:21
Gurwin Techsat 1B 24 Mar 15:59:57 16:02:41 14° 273° (W) 16:05:26 435.225
ITAMSAT 1 24 Mar 16:04:23 16:09:32 58° 259° (W) 16:14:42 435.822/435.867
AO-7 24 Mar 16:07:15 16:15:35 73° 253° (WSW) 16:23:56 .
UKube-1 24 Mar 16:11:08 16:13:20 14° 301° (WNW) 16:15:32 .
NO-84 24 Mar 16:34:54 16:36:07 11° 231° (SW) 16:37:21 435.350 FM
SO-50 24 Mar 16:41:10 16:45:49 88° 305° (NW) 16:50:26 436.795
CUBESAT XI-V 24 Mar 16:44:03 16:45:09 11° 86° (E) 16:46:16 437.345
BEESAT 24 Mar 16:54:38 16:59:17 54° 290° (WNW) 17:03:54 436.000
RS-15 24 Mar 17:08:53 17:20:11 40° 337° (NNW) 17:31:37 29.354- 29.394
ITUPSAT 1 24 Mar 17:09:22 17:13:50 41° 292° (WNW) 17:18:16 437.325
LilacSat-2 24 Mar 17:15:35 17:17:07 12° 61° (ENE) 17:18:37 437.200
XW-2F 24 Mar 17:18:40 17:20:06 12° 61° (ENE) 17:21:33 145.980 - 146.000
KKS-1 24 Mar 17:31:41 17:35:54 39° 98° (E) 17:40:06 437.445
MOZHAYETS 4 24 Mar 17:33:03 17:37:26 48° 290° (WNW) 17:41:49
CUTE-I 24 Mar 17:37:26 17:41:54 28° 62° (ENE) 17:46:23 437.470
XW-2D 24 Mar 17:41:21 17:44:17 21° 66° (ENE) 17:47:13 145.860 - 145.880
XW-2B 24 Mar 17:47:03 17:50:08 24° 67° (ENE) 17:53:12 145.730 - 145.750
O/OREOS (USA 219) 24 Mar 17:47:10 17:51:18 36° 107° (ESE) 17:55:30 437.305
NUDT-PHONESAT 24 Mar 17:49:36 17:52:26 21° 66° (ENE) 17:55:16 437.300
KAITUO 1B 24 Mar 17:53:40 17:56:39 23° 67° (ENE) 17:59:39 145.475/437.950
XW-2C 24 Mar 17:56:47 18:00:08 30° 69° (ENE) 18:03:30 145.795 - 145.815
PCSat 24 Mar 18:00:28 18:04:25 20° 34° (NE) 18:08:21 145.827
YUBILEINY 24 Mar 18:04:37 18:11:24 24° 60° (ENE) 18:18:08 435.215
AO-7 24 Mar 18:05:09 18:09:47 16° 274° (W) 18:14:26 .
DOVE 4 24 Mar 18:10:17 18:14:52 61° 72° (ENE) 18:19:47 437.250
STARS 24 Mar 18:14:30 18:18:50 49° 100° (E) 18:23:07 437.465
CUBESAT XI-V 24 Mar 18:18:32 18:23:12 89° 101° (E) 18:27:52 437.345
SO-50 24 Mar 18:23:35 18:26:56 19° 327° (NNW) 18:30:15 436.795
XW-2A 24 Mar 18:39:37 18:41:23 14° 63° (ENE) 18:43:11 145.665 - 145.685
HO-68 24 Mar 18:43:12 18:49:28 35° 59° (ENE) 18:55:46 435.675
LilacSat-2 24 Mar 18:47:04 18:50:53 68° 258° (WSW) 18:54:43 437.200
XW-2F 24 Mar 18:49:57 18:53:44 68° 258° (WSW) 18:57:32 145.980 - 146.000
SEEDS 24 Mar 18:57:20 18:59:35 14° 61° (ENE) 19:01:51 437.485
CUTE 1.7 + AOD 2 24 Mar 18:58:38 19:01:50 21° 65° (ENE) 19:05:02 437.475
KKS-1 24 Mar 19:08:37 19:12:17 25° 296° (WNW) 19:15:55 437.445
XW-2D 24 Mar 19:14:51 19:18:19 33° 264° (W) 19:21:47 145.860 - 145.880
CUTE-I 24 Mar 19:16:31 19:21:41 49° 260° (W) 19:26:56 437.470
XW-2B 24 Mar 19:20:51 19:24:13 29° 264° (W) 19:27:35 145.730 - 145.750
M-CUBED/EXP-1 PRIME 24 Mar 19:22:28 19:26:41 35° 102° (ESE) 19:30:59 437.505
NUDT-PHONESAT 24 Mar 19:22:45 19:26:11 33° 263° (W) 19:29:36 437.300
UWE-3 24 Mar 19:25:06 19:27:43 15° 60° (ENE) 19:30:19 435.000/436.395/437.385
RS-15 24 Mar 19:25:58 19:37:00 35° 11° (NNE) 19:47:51 29.354- 29.394
O/OREOS (USA 219) 24 Mar 19:26:49 19:30:46 29° 306° (NW) 19:34:47 437.305
KAITUO 1B 24 Mar 19:27:15 19:30:34 29° 264° (W) 19:33:53 145.475/437.950
XW-2C 24 Mar 19:31:19 19:34:22 23° 266° (W) 19:37:26 145.795 - 145.815
PCSat 24 Mar 19:43:13 19:48:42 80° 56° (ENE) 19:54:07 145.827
DOVE 4 24 Mar 19:49:56 19:53:03 17° 272° (W) 19:56:18 437.250
STARS 24 Mar 19:51:35 19:54:51 20° 298° (WNW) 19:58:06 437.465
CUBEBUG 2 24 Mar 19:51:44 19:56:08 38° 69° (ENE) 20:00:31 437.445
STRAND 1 24 Mar 19:52:25 19:56:27 23° 93° (E) 20:00:26 437.568
CUBESAT XI-V 24 Mar 19:57:48 19:59:53 13° 302° (WNW) 20:01:59 437.345
YUBILEINY 24 Mar 20:00:40 20:09:25 86° 263° (W) 20:18:08 435.215
Oscar 11 24 Mar 20:07:39 20:10:26 17° 62° (ENE) 20:13:13 .
ZACube-1 24 Mar 20:09:57 20:13:31 23° 65° (ENE) 20:17:04 437.345
XW-2A 24 Mar 20:10:28 20:13:48 46° 261° (W) 20:17:09 145.665 - 145.685
AAUSAT CUBESAT 2 24 Mar 20:21:58 20:25:56 50° 72° (ENE) 20:29:56 437.432
HO-68 24 Mar 20:29:56 20:36:54 56° 258° (WSW) 20:43:57 435.675
SEEDS 24 Mar 20:30:39 20:34:47 65° 259° (W) 20:38:57 437.485
CUTE 1.7 + AOD 2 24 Mar 20:33:27 20:37:26 40° 262° (W) 20:41:26 437.475
AO-73 24 Mar 20:38:56 20:43:09 39° 69° (ENE) 20:47:18 145.935
M-CUBED/EXP-1 PRIME 24 Mar 20:56:59 21:01:02 32° 299° (WNW) 21:05:09 437.505
UWE-3 24 Mar 20:58:55 21:03:35 77° 258° (WSW) 21:08:14 435.000/436.395/437.385
PCSat 24 Mar 21:27:58 21:31:25 17° 255° (WSW) 21:34:51 145.827
CUBEBUG 2 24 Mar 21:28:45 21:32:48 27° 266° (W) 21:36:52 437.445
STRAND 1 24 Mar 21:30:57 21:35:55 51° 290° (WNW) 21:40:50 437.568
RS-15 24 Mar 21:40:14 21:52:34 63° 43° (NE) 22:04:22 29.354- 29.394
Oscar 11 24 Mar 21:41:53 21:46:09 57° 260° (W) 21:50:25 .
ZACube-1 24 Mar 21:45:12 21:49:33 43° 262° (W) 21:53:53 437.345
SO-50 24 Mar 21:50:58 21:51:55 11° 17° (NNE) 21:52:52 436.795
AAUSAT CUBESAT 2 24 Mar 21:59:10 22:01:43 16° 270° (W) 22:04:15 437.432
YUBILEINY 24 Mar 21:59:12 22:04:54 20° 284° (WNW) 22:10:36 435.215
DELFI C3 24 Mar 22:01:04 22:04:58 74° 75° (ENE) 22:08:54 145.870
AO-73 24 Mar 22:15:45 22:19:28 25° 266° (W) 22:23:10 145.935
AO-85 24 Mar 22:22:58 22:27:18 63° 123° (ESE) 22:31:23 145.980
ISS 24 Mar 22:28:06 22:31:06 34° 143° (SE) 22:34:07 437.550
